Location: Lachepaillet
(43.4918°N, 1.4874°W)
Time: 01:55:07
(UTC+00:00)

USA 186 - Pass Details

Date: 15 May 2026
Orbit: 338 x 359 km, 97.0° (Epoch: 19 May)

Event Time Altitude Azimuth Distance (km) Brightness Sun altitude
Exits shadow 21:12:57 39° 201° (SSW) 521 2.0 -16.4°
Maximum altitude 21:13:42 58° 259° (W) 401 1.7 -16.5°
Drops below altitude 10° 21:16:25 10° 340° (NNW) 1,291 5.3 -16.8°
Sets 21:18:22 0° 345° (NNW) 2,138 6.5 -17.1°
